This is the latest recevied weather packets stored in our database for station/object KD0ISH. If no packets are shown the sender has not sent any weather packets the latest 10 day(s).
| Time | Temp. | Humidity | Pressure | Rain* | Wind** | Luminosity | Snow |
|---|---|---|---|---|---|---|---|
| 1777974987 | 12.78° C | 92% | 1007.9 hPa | 0 mm | - | 0 W/m² | - |
| 1777974684 | 12.78° C | 92% | 1008.1 hPa | 0 mm | - | 0 W/m² | - |
| 1777974380 | 12.78° C | 92% | 1008 hPa | 0 mm | - | 0 W/m² | - |
| 1777974076 | 12.78° C | 91% | 1008 hPa | 0 mm | - | 0 W/m² | - |
| 1777973773 | 12.78° C | 91% | 1008.3 hPa | 0 mm | - | 0 W/m² | - |
| 1777973470 | 13.33° C | 91% | 1008.3 hPa | 0 mm | - | 0 W/m² | - |
| 1777973167 | 13.33° C | 91% | 1008.4 hPa | 0 mm | - | 0 W/m² | - |
| 1777972866 | 13.33° C | 90% | 1008.2 hPa | 0 mm | - | 0 W/m² | - |
| 1777972562 | 13.89° C | 89% | 1008 hPa | 0 mm | - | 0 W/m² | - |
| 1777972261 | 13.89° C | 89% | 1008 hPa | 0 mm | - | 0 W/m² | - |
| 1777971958 | 14.44° C | 88% | 1008 hPa | 0 mm | - | 0 W/m² | - |
| 1777971656 | 15° C | 87% | 1008 hPa | 0 mm | - | 0 W/m² | - |
| 1777971353 | 17.22° C | 86% | 1007.8 hPa | 1.78 mm | - | 0 W/m² | - |
| 1777971051 | 18.33° C | 85% | 1007.9 hPa | 1.78 mm | - | 0 W/m² | - |
| 1777970749 | 18.89° C | 82% | 1007.2 hPa | 0 mm | - | 0 W/m² | - |
| 1777970447 | 18.89° C | 80% | 1007.2 hPa | 0 mm | - | 0 W/m² | - |
| 1777970144 | 18.89° C | 79% | 1006.3 hPa | 0 mm | - | 0 W/m² | - |
| 1777969840 | 18.89° C | 79% | 1005.8 hPa | 0 mm | - | 0 W/m² | - |
| 1777969536 | 18.89° C | 78% | 1005.6 hPa | 0 mm | - | 0 W/m² | - |
| 1777969233 | 18.89° C | 79% | 1005.3 hPa | 0 mm | - | 0 W/m² | - |
| 1777968930 | 18.33° C | 81% | 1005.2 hPa | 0 mm | - | 0 W/m² | - |
| 1777968627 | 18.33° C | 81% | 1005 hPa | 0 mm | - | 0 W/m² | - |
| 1777968323 | 18.89° C | 81% | 1005.2 hPa | 0 mm | - | 0 W/m² | - |
| 1777968020 | 18.89° C | 81% | 1005.2 hPa | 0 mm | - | 0 W/m² | - |
| 1777967716 | 18.89° C | 80% | 1005.4 hPa | 0 mm | - | 0 W/m² | - |
* Rain latest hour (hover to see other rain measurements)
** Current wind speed in m/s (hover to see current wind gust speed)